TimeEDT,TemperatureF,Dew PointF,Humidity,Sea Level PressureIn,VisibilityMPH,Wind Direction,Wind SpeedMPH,Gust SpeedMPH,PrecipitationIn,Events,Conditions,WindDirDegrees,DateUTC
12:53 AM,48.0,46.0,93,30.28,0.2,SSE,3.5,-,N/A,Fog,Fog,150,2011-10-05 04:53:00
1:53 AM,46.9,46.0,97,30.29,0.2,Calm,Calm,-,N/A,Fog,Fog,0,2011-10-05 05:53:00
2:53 AM,46.9,45.0,93,30.29,0.2,SE,3.5,-,N/A,Fog,Fog,130,2011-10-05 06:53:00
3:53 AM,46.0,44.1,93,30.28,0.2,SSE,3.5,-,N/A,Fog,Fog,150,2011-10-05 07:53:00
4:53 AM,45.0,44.1,97,30.29,0.2,SE,3.5,-,N/A,Fog,Fog,140,2011-10-05 08:53:00
5:53 AM,45.0,44.1,97,30.30,0.2,Calm,Calm,-,N/A,Fog,Fog,0,2011-10-05 09:53:00
6:53 AM,45.0,44.1,97,30.32,0.2,SSE,3.5,-,0.01,Fog,Fog,150,2011-10-05 10:53:00
7:53 AM,45.0,43.0,93,30.33,0.2,SSE,4.6,-,N/A,Fog,Fog,150,2011-10-05 11:53:00
8:53 AM,46.9,45.0,93,30.34,0.2,Calm,Calm,-,N/A,Fog,Fog,0,2011-10-05 12:53:00
9:53 AM,50.0,48.0,93,30.34,0.2,SSE,4.6,-,N/A,Fog,Fog,150,2011-10-05 13:53:00
10:53 AM,53.1,51.1,93,30.34,0.8,SSE,4.6,-,N/A,,Mist,150,2011-10-05 14:53:00
10:58 AM,53.6,51.8,94,30.33,1.2,SE,4.6,-,N/A,,Overcast,140,2011-10-05 14:58:00
11:09 AM,53.6,51.8,94,30.33,2.5,SE,4.6,-,N/A,,Overcast,130,2011-10-05 15:09:00
11:17 AM,55.4,53.6,94,30.33,4.0,SE,4.6,-,N/A,,Overcast,130,2011-10-05 15:17:00
11:48 AM,57.2,53.6,88,30.33,6.0,SE,4.6,-,N/A,,Haze,140,2011-10-05 15:48:00
11:53 AM,59.0,53.1,81,30.34,7.0,SE,4.6,-,N/A,,Partly Cloudy,140,2011-10-05 15:53:00
12:53 PM,68.0,54.0,61,30.31,10.0,Calm,Calm,-,N/A,,Clear,0,2011-10-05 16:53:00
1:39 PM,69.8,53.6,56,30.29,2.5,Calm,Calm,-,N/A,,Haze,0,2011-10-05 17:39:00
1:53 PM,71.1,52.0,51,30.28,4.0,Variable,3.5,-,N/A,,Haze,0,2011-10-05 17:53:00
2:01 PM,73.4,51.8,47,30.28,1.8,Variable,3.5,-,N/A,,Haze,0,2011-10-05 18:01:00
2:08 PM,71.6,51.8,50,30.27,2.5,Calm,Calm,-,N/A,,Haze,0,2011-10-05 18:08:00
2:23 PM,71.6,51.8,50,30.27,3.0,Calm,Calm,-,N/A,,Haze,0,2011-10-05 18:23:00
2:35 PM,73.4,51.8,47,30.26,2.0,Variable,3.5,-,N/A,,Haze,0,2011-10-05 18:35:00
2:51 PM,73.4,50.0,44,30.26,6.0,West,3.5,-,N/A,,Haze,280,2011-10-05 18:51:00
3:22 PM,73.4,48.2,41,30.25,2.5,North,3.5,-,N/A,,Haze,350,2011-10-05 19:22:00
3:33 PM,73.4,46.4,38,30.25,5.0,NNW,4.6,-,N/A,,Haze,340,2011-10-05 19:33:00
3:42 PM,73.4,46.4,38,30.25,1.8,West,4.6,-,N/A,,Haze,260,2011-10-05 19:42:00
3:53 PM,75.0,46.0,36,30.25,1.5,Calm,Calm,-,N/A,,Haze,0,2011-10-05 19:53:00
4:01 PM,73.4,46.4,38,30.25,2.0,Calm,Calm,-,N/A,,Haze,0,2011-10-05 20:01:00
4:06 PM,73.4,46.4,38,30.25,1.0,NNW,6.9,-,N/A,,Haze,340,2011-10-05 20:06:00
4:17 PM,75.2,46.4,36,30.25,1.8,WNW,4.6,-,N/A,,Haze,290,2011-10-05 20:17:00
4:30 PM,75.2,46.4,36,30.25,1.0,NW,6.9,-,N/A,,Haze,310,2011-10-05 20:30:00
4:37 PM,73.4,46.4,38,30.25,1.2,WNW,5.8,-,N/A,,Haze,300,2011-10-05 20:37:00
4:53 PM,73.0,46.9,39,30.25,1.2,Calm,Calm,-,N/A,,Haze,0,2011-10-05 20:53:00
5:53 PM,73.0,48.9,42,30.25,2.0,NNW,4.6,-,N/A,,Haze,340,2011-10-05 21:53:00
6:00 PM,71.6,48.2,43,30.25,1.8,NNW,3.5,-,N/A,,Haze,340,2011-10-05 22:00:00
6:21 PM,69.8,51.8,53,30.25,3.0,Calm,Calm,-,N/A,,Haze,0,2011-10-05 22:21:00
7:53 PM,57.0,53.1,87,30.27,10.0,Calm,Calm,-,N/A,,Clear,0,2011-10-05 23:53:00
9:35 PM,51.8,51.8,100,30.29,1.5,Calm,Calm,-,N/A,,Clear,0,2011-10-06 01:35:00
9:39 PM,51.8,51.8,100,30.29,0.8,Calm,Calm,-,N/A,,Clear,0,2011-10-06 01:39:00
9:45 PM,51.8,50.0,94,30.29,1.2,Calm,Calm,-,N/A,,Clear,0,2011-10-06 01:45:00
9:48 PM,53.6,50.0,88,30.29,3.0,Calm,Calm,-,N/A,,Clear,0,2011-10-06 01:48:00
10:08 PM,51.8,50.0,94,30.29,0.8,Calm,Calm,-,N/A,,Clear,0,2011-10-06 02:08:00
10:21 PM,51.8,50.0,94,30.29,1.2,Calm,Calm,-,N/A,,Clear,0,2011-10-06 02:21:00
10:29 PM,51.8,48.2,88,30.30,6.0,Calm,Calm,-,N/A,,Clear,0,2011-10-06 02:29:00
10:38 PM,50.0,48.2,94,30.30,1.0,Calm,Calm,-,N/A,,Clear,0,2011-10-06 02:38:00
10:45 PM,51.8,48.2,88,30.30,0.2,Calm,Calm,-,N/A,Fog,Fog,0,2011-10-06 02:45:00
10:53 PM,51.1,48.9,92,30.31,0.2,Calm,Calm,-,N/A,Fog,Fog,0,2011-10-06 02:53:00
11:25 PM,50.0,48.2,94,30.30,1.2,Calm,Calm,-,N/A,,Clear,0,2011-10-06 03:25:00
11:28 PM,50.0,48.2,94,30.30,3.0,Calm,Calm,-,N/A,,Clear,0,2011-10-06 03:28:00
11:34 PM,48.2,48.2,100,30.30,1.2,Calm,Calm,-,N/A,,Clear,0,2011-10-06 03:34:00
11:41 PM,50.0,48.2,94,30.30,0.8,Calm,Calm,-,N/A,,Clear,0,2011-10-06 03:41:00
11:53 PM,48.9,46.9,93,30.31,1.2,Calm,Calm,-,N/A,,Clear,0,2011-10-06 03:53:00
11:55 PM,48.2,46.4,93,30.31,3.0,Calm,Calm,-,N/A,,Clear,0,2011-10-06 03:55:00